Temp
7 7 8 8 9 9 10 12 12 13 13 12 12 11 12 14 14 14 15 15 16 16 16 16 17 20 21 18 18 19 19 20 19 18 18 19 21 19 19 19 20 20 20 20
8 8 10 9 10 10 11 12 13 13 13 13 13 12 12 13 13 14 15 15 16 16 17 16 16 16 18 19 19 19 19 20 19 19 20 18 18 18 19 19 19 20 20 20
8 10 10 9 9 11 12 12 13 13 12 13 13 13 12 12 14 13 14 14 15 16 16 17 16 16 16 17 18 18 19 19 19 19 19 20 19 19 18 19 19 19 19 20
9 10 10 8 11 13 12 13 13 13 13 13 14 13 13 13 13 14 13 13 14 14 15 15 16 17 16 17 17 20 20 20 20 20 20 19 19 17 18 20 20 18 18 17
10 10 9 10 12 12 13 14 14 13 13 13 13 13 14 12 13 14 14 13 13 14 14 15 15 17 19 19 18 18 19 21 21 20 21 21 19 19 19 20 17 16 16 16
9 6 9 11 12 13 13 13 12 12 13 12 13 14 14 14 15 16 15 14 13 13 13 13 16 17 18 19 19 20 19 19 20 20 20 20 21 20 20 16 16 14 14 14
11 11 12 11 12 13 13 12 11 12 12 13 13 14 16 16 15 16 15 14 13 13 13 13 13 14 17 18 18 18 19 20 19 17 18 18 19 19 18 16 15 15 14 13
7 10 11 12 11 12 12 12 11 13 12 12 13 13 15 16 14 14 14 14 13 12 12 12 12 13 15 17 18 18 18 18 18 17 17 16 16 17 16 15 15 15 14 15
9 11 12 11 12 12 12 10 13 10 11 10 12 13 15 15 15 14 13 12 12 11 12 13 12 13 14 15 17 16 16 16 16 16 16 16 15 15 15 14 15 14 15 15
10 12 11 13 13 13 13 13 12 9 12 14 12 13 14 13 14 14 13 12 12 12 11 10 10 11 12 13 14 15 15 15 16 16 15 15 15 14 14 14 13 14 14 14
10 10 11 11 11 12 12 12 11 10 10 12 12 14 13 12 12 15 12 11 11 11 10 10 9 11 12 12 13 13 14 15 15 15 15 15 14 13 13 13 13 13 14 14
10 9 9 11 11 12 12 12 10 10 12 7 9 13 12 11 12 12 12 12 12 12 11 10 10 11 11 12 12 13 13 14 14 14 14 14 13 13 12 12 12 12 12 12
11 8 6 9 10 11 12 12 10 9 8 8 9 12 13 12 12 12 13 13 12 12 12 11 10 10 10 11 11 12 13 13 14 13 13 12 12 12 12 12 11 11 10 10
11 8 9 8 10 10 12 12 11 9 7 10 9 13 14 12 13 12 12 13 11 11 11 10 10 9 11 11 11 11 12 12 12 12 12 12 12 12 12 12 12 12 10 10
10 9 7 10 11 10 11 12 11 7 11 9 12 11 12 12 12 12 12 12 11 12 12 11 10 9 10 11 12 12 12 12 12 11 11 11 11 11 11 10 10 10 10 9
8 7 7 8 9 10 11 11 11 10 11 10 11 10 12 12 11 12 11 10 11 11 11 10 9 9 10 11 11 12 12 12 11 11 11 11 10 10 10 9 9 9 8 8
9 8 7 8 8 10 10 12 11 11 11 12 12 12 10 10 10 11 11 11 10 10 10 10 9 9 10 11 11 11 12 11 11 11 10 10 10 9 9 8 8 8 8 7
9 8 7 6 8 8 11 10 11 11 11 11 10 10 9 10 9 9 9 10 10 10 10 9 9 9 10 10 11 10 11 10 10 10 10 10 9 8 8 8 7 7 7 6
8 8 8 8 7 9 11 12 12 12 12 9 10 9 9 8 9 10 9 8 8 8 8 8 9 9 9 9 10 9 9 9 8 9 9 9 9 8 7 7 7 6 6 5
8 7 8 7 8 10 10 11 11 11 9 7 7 7 7 7 7 7 7 7 7 8 8 8 9 9 9 10 8 8 8 8 7 8 9 9 9 8 7 7 6 6 5 5
8 7 8 8 8 8 9 9 11 11 9 7 7 7 7 6 6 7 6 6 7 8 9 9 9 8 9 9 8 7 7 6 9 8 8 9 9 8 8 7 6 6 5 4
8 7 7 6 7 7 9 10 11 7 7 6 6 6 5 5 6 6 6 6 6 6 7 8 7 8 9 8 7 6 6 9 7 7 8 8 8 8 7 7 6 5 4 3
9 8 7 7 8 8 8 7 7 6 5 5 4 4 4 4 4 5 5 6 6 6 7 7 7 7 8 8 7 6 8 7 7 7 7 7 7 7 7 6 5 3 3 2
8 6 7 8 8 8 8 6 5 5 4 4 3 3 3 4 5 5 5 6 6 6 6 7 6 5 6 8 7 7 7 6 6 6 6 5 5 5 5 5 4 3 2 2
6 6 6 6 7 7 7 5 4 3 3 2 3 3 4 4 4 4 4 5 5 5 7 6 6 6 5 7 7 7 6 5 5 5 5 5 5 5 4 4 4 4 4 4
4 6 6 7 6 6 6 4 3 2 2 2 3 3 4 4 4 4 3 3 3 4 6 5 6 6 6 6 6 6 6 5 5 4 4 4 4 4 4 4 3 3 3 3
Height
768 767 760 763 758 761 758 753 753 754 760 765 777 780 776 767 758 755 750 753 751 751 753 752 757 762 768 779 783 785 789 786 792 798 796 796 797 802 806 810 811 813 816 819
765 757 750 758 755 759 755 753 751 756 762 771 772 774 767 756 758 756 753 753 753 751 754 755 759 764 767 772 776 779 780 782 786 787 789 793 794 802 804 807 809 811 812 815
759 747 746 756 755 751 749 748 751 752 763 769 768 767 768 765 756 760 758 754 755 754 755 757 763 764 768 768 770 773 776 780 784 786 790 791 796 800 802 803 803 807 810 811
751 745 748 754 747 743 748 744 744 750 763 759 767 773 768 764 759 759 758 755 752 754 757 758 760 763 765 765 768 773 774 778 780 784 786 788 793 797 796 797 799 805 806 808
745 746 751 751 743 742 743 742 746 753 758 764 771 769 761 766 764 760 754 758 756 753 755 758 760 760 761 766 768 771 773 777 779 781 783 784 786 789 792 794 797 801 802 803
742 759 755 744 738 735 738 745 756 762 766 776 772 769 761 762 760 748 750 755 755 754 753 755 757 760 761 764 767 769 770 772 773 777 779 780 782 783 786 788 792 797 801 803
742 742 742 745 741 741 743 754 777 774 772 776 770 770 760 754 752 749 750 749 750 754 756 755 756 758 759 760 761 763 765 767 769 773 774 775 779 781 783 785 789 793 799 803
781 761 756 751 755 755 758 757 772 764 770 773 771 774 760 750 753 753 750 750 751 754 756 757 755 755 755 756 758 760 761 763 764 766 770 773 775 777 780 784 785 790 792 797
772 763 759 758 756 759 759 774 759 782 787 793 783 774 756 753 755 757 757 755 756 757 759 760 760 757 752 751 753 756 759 762 764 768 769 771 775 776 776 780 782 787 791 794
762 761 764 758 754 755 754 757 770 787 783 776 787 780 774 767 762 759 759 761 761 759 759 759 758 756 754 753 752 753 756 759 762 765 769 771 773 774 776 779 782 784 788 792
761 769 772 766 773 767 765 763 770 777 789 782 786 779 771 773 770 762 765 764 763 761 759 758 757 756 755 755 755 755 755 757 760 763 766 769 770 773 776 780 784 786 788 793
766 779 787 777 772 768 765 767 773 788 783 819 802 784 771 774 766 764 764 763 762 759 759 759 758 757 756 757 756 757 758 760 763 766 769 770 771 774 777 778 780 784 788 792
764 787 810 793 782 773 773 772 780 788 799 810 809 785 769 770 767 764 762 759 759 759 757 757 756 757 759 760 759 759 759 759 761 763 765 767 770 772 775 778 782 784 791 793
766 786 784 803 783 783 774 775 777 788 816 796 801 776 767 768 765 763 761 760 762 760 758 755 753 753 753 754 755 755 754 756 759 761 763 764 767 771 773 776 778 780 786 791
772 789 800 783 778 781 776 775 781 801 785 798 781 785 773 770 769 766 762 761 761 757 755 755 754 752 752 751 750 750 751 753 755 757 759 760 764 768 772 774 776 777 782 785
779 799 797 794 790 785 778 778 781 783 783 788 788 788 773 772 769 765 766 764 762 760 759 759 757 755 752 750 749 749 750 750 753 754 756 759 761 766 770 771 774 777 780 784
781 789 798 803 795 787 793 776 782 785 784 779 780 775 778 773 772 770 768 766 764 762 760 757 755 752 751 750 751 748 747 747 748 751 754 756 758 764 768 769 772 775 778 781
783 791 799 812 799 811 784 780 778 778 778 777 780 779 780 779 777 774 770 769 767 766 763 760 757 753 750 748 746 744 742 740 742 745 747 751 756 760 762 766 769 772 776 779
785 793 803 806 814 796 777 777 776 776 779 788 784 787 786 783 778 771 771 772 771 769 765 761 756 751 747 743 741 739 737 736 737 739 742 746 750 754 757 760 766 770 773 775
789 794 800 811 806 792 785 779 778 778 793 794 793 793 791 787 790 781 774 772 767 763 759 755 751 748 744 740 740 738 734 733 734 734 736 740 745 749 752 756 762 766 770 773
797 802 802 801 807 798 786 784 780 784 796 793 791 791 790 791 788 779 774 769 764 760 755 751 747 745 742 740 739 735 732 730 727 729 733 736 739 743 748 753 757 762 766 771
792 806 806 813 809 812 785 782 779 795 793 792 791 792 791 788 782 777 771 765 760 755 750 747 744 739 736 736 735 730 726 722 723 725 728 732 735 739 746 750 755 760 764 768
791 791 796 799 795 787 785 788 790 792 792 792 794 790 787 783 778 773 766 760 755 751 746 742 738 734 728 729 728 724 718 717 717 719 722 726 731 736 740 746 750 755 760 763
786 791 792 789 786 786 786 790 791 792 792 792 790 787 785 780 773 768 763 757 751 746 740 736 732 728 723 721 720 719 715 713 714 715 718 722 728 733 738 742 746 750 755 759
789 790 791 790 785 784 786 789 792 792 791 790 788 785 780 775 769 766 757 751 746 739 733 729 725 721 717 716 713 714 712 711 712 715 716 720 725 730 735 739 743 747 751 755
785 782 787 784 781 783 784 787 789 790 791 789 785 780 775 772 767 762 756 749 741 733 726 722 718 713 711 710 711 711 710 709 711 714 716 719 724 727 731 736 741 745 749 752
Wind_Speed
3 3 6 15 12 9 5 4 7 3 12 6 9 8 14 13 4 5 3 3 3 3 1 6 19 28 30 30 40 36 34 30 32 29 23 32 33 35 32 31 27 26 26 24
4 6 7 8 9 11 11 9 10 14 13 5 6 6 12 11 5 4 3 2 2 1 2 4 6 15 26 34 32 33 39 37 36 34 31 23 21 29 32 27 26 28 30 27
6 2 11 7 7 10 5 13 9 9 10 4 5 4 4 5 5 4 5 4 2 0 2 1 8 13 17 24 30 32 36 35 33 32 27 28 33 31 26 27 27 26 27 28
5 4 6 7 5 9 6 9 13 18 9 4 2 2 4 4 11 6 7 5 6 5 2 3 4 7 14 19 21 27 29 31 34 33 33 33 26 24 29 33 31 26 24 25
1 5 6 2 3 8 3 13 12 10 5 5 4 2 4 3 8 9 6 7 8 8 6 7 7 13 12 10 12 15 17 23 23 26 30 32 33 34 32 33 27 21 19 15
4 2 3 3 3 8 12 15 7 3 2 3 4 2 5 2 6 2 4 8 7 7 7 7 13 13 17 14 14 14 14 17 18 21 22 25 25 22 22 16 16 13 11 9
7 14 3 5 10 7 7 5 3 3 3 2 1 1 6 3 7 3 8 9 7 6 6 7 7 10 15 15 17 15 15 17 16 17 18 20 21 19 19 17 17 19 16 10
5 5 10 12 5 4 4 3 3 4 3 2 5 3 4 2 6 4 1 3 3 6 4 5 7 12 15 18 17 17 17 17 14 13 12 15 18 18 16 17 17 21 19 13
4 5 4 5 2 2 4 4 2 6 4 4 1 5 6 4 6 6 7 8 8 7 5 4 1 5 12 16 17 14 15 15 12 11 10 8 9 10 13 15 17 21 17 16
2 5 4 5 3 4 3 1 2 3 4 2 1 3 3 8 7 6 8 8 7 6 6 5 5 8 8 8 10 11 11 12 10 9 8 9 8 8 10 16 21 22 20 18
2 3 2 2 4 3 5 3 4 5 4 3 2 3 3 7 6 3 6 6 6 7 6 6 7 10 7 3 3 5 9 12 11 9 9 9 9 10 14 17 18 18 18 17
4 4 4 2 4 2 2 2 3 4 1 2 2 3 2 4 2 4 4 4 3 3 4 4 5 7 7 3 1 5 9 12 13 14 14 14 14 15 18 20 21 20 20 16
1 3 3 6 5 4 4 3 3 5 4 1 3 4 3 3 5 4 4 5 5 6 6 3 2 2 2 2 3 8 11 12 13 14 14 16 18 19 20 19 18 16 12 12
4 3 3 5 3 2 2 3 3 4 3 3 4 3 4 7 6 7 6 5 6 7 8 7 7 6 8 6 4 4 6 9 14 17 17 17 18 19 19 19 19 14 11 9
4 4 3 3 1 3 2 3 2 2 2 4 3 5 6 7 6 7 6 6 8 9 8 7 6 6 10 11 10 7 7 9 11 14 17 18 17 16 17 16 14 15 13 11
3 1 2 5 7 5 1 1 2 3 3 4 4 7 5 5 5 6 8 8 8 8 7 6 7 8 11 12 14 12 13 13 14 16 19 18 17 18 19 18 17 15 13 12
3 3 3 3 4 3 3 1 0 2 1 1 2 5 5 7 7 6 7 6 7 7 7 8 7 8 13 16 16 17 18 17 17 20 20 20 20 21 22 21 18 15 14 12
3 3 2 1 4 3 5 3 4 4 4 3 4 6 6 5 7 7 6 5 7 7 7 8 9 15 20 20 21 21 18 17 20 23 23 22 23 24 22 20 18 17 15 12
4 3 3 2 1 4 1 2 2 3 3 7 5 8 6 8 7 6 8 7 6 7 9 15 22 23 24 24 25 23 22 19 19 27 28 28 27 26 24 23 21 19 16 13
4 6 4 1 2 2 4 1 0 2 1 6 6 7 7 8 5 4 7 10 11 18 19 21 26 24 24 28 21 19 22 20 23 30 33 31 29 29 29 27 25 21 17 14
2 3 3 2 2 6 3 5 1 2 3 5 4 4 5 2 5 9 12 10 12 16 21 26 24 23 27 24 21 22 22 22 28 25 28 28 29 30 30 27 26 22 18 15
5 4 2 2 1 5 2 1 1 1 3 5 4 5 6 9 11 11 12 14 12 13 16 23 22 24 27 21 17 23 22 25 22 21 25 28 30 29 27 26 23 21 19 17
2 5 4 7 4 2 1 5 4 2 3 3 4 6 8 12 13 14 14 16 14 20 21 21 19 25 26 22 17 20 24 17 17 20 24 28 28 28 28 28 26 24 21 18
2 2 2 1 2 4 1 4 3 1 1 4 5 8 8 12 17 19 18 18 17 25 25 22 21 19 23 22 16 17 16 11 16 21 23 25 27 27 25 25 26 25 23 19
4 4 4 3 4 2 2 3 1 1 3 6 7 7 12 14 15 16 16 16 19 25 24 21 22 21 20 17 12 12 8 9 14 17 20 22 24 23 22 22 23 22 19 19
5 6 5 5 5 4 2 2 2 4 5 7 10 12 12 15 16 16 15 22 24 24 23 22 26 20 19 12 10 9 8 10 14 15 18 20 22 21 20 19 16 16 15 14
Wind_Direction
212 202 202 192 192 236 285 157 125 158 148 115 223 256 265 289 318 346 42 55 88 86 109 161 179 193 194 185 192 197 203 202 211 221 215 210 218 233 234 236 233 225 224 220
236 237 190 150 209 207 196 148 138 110 121 99 187 240 282 315 324 302 312 338 42 53 73 108 152 176 191 200 204 205 206 205 213 215 222 224 221 236 239 238 241 236 226 221
247 316 157 151 188 167 167 154 152 131 144 163 151 259 232 281 309 263 258 257 272 217 283 9 159 195 211 203 207 209 215 219 232 229 231 229 231 233 239 238 230 232 229 222
245 149 144 154 134 162 162 173 136 127 182 90 331 291 249 299 308 258 257 247 271 262 224 245 284 216 199 217 215 221 223 230 232 234 229 230 237 241 242 250 241 231 226 225
114 165 102 119 211 172 127 142 125 102 91 121 360 38 296 64 304 266 269 241 241 249 235 243 234 258 257 235 220 230 230 232 231 233 240 238 227 237 245 244 231 219 221 222
95 137 152 283 343 130 123 94 76 86 199 72 162 67 318 173 233 205 238 243 232 231 250 247 251 266 266 259 246 232 232 242 234 236 236 241 250 249 255 234 212 202 192 171
4 27 26 53 66 38 77 52 52 37 40 118 96 100 229 263 260 281 274 278 240 210 220 261 268 254 259 261 254 247 238 240 236 233 237 241 246 249 243 231 211 185 175 169
59 33 2 342 45 94 28 58 143 132 136 60 71 256 264 323 315 303 182 348 107 167 195 237 267 266 261 260 259 247 242 246 247 245 244 249 250 245 238 233 206 193 180 172
100 60 316 44 347 87 270 64 181 102 42 73 256 293 311 6 36 40 60 56 59 79 105 119 326 285 283 268 261 260 241 232 224 223 227 239 241 236 228 218 202 185 172 173
158 99 6 346 345 62 117 144 112 355 103 91 310 274 260 351 348 18 31 36 28 40 41 31 15 7 344 302 267 255 243 230 217 214 217 216 215 211 201 187 179 177 180 186
99 82 318 19 9 358 355 14 40 118 72 130 111 305 231 274 283 8 34 25 31 30 20 8 354 4 13 336 261 231 219 207 207 215 224 222 206 190 183 185 188 185 178 177
360 99 66 77 303 307 1 58 54 102 318 63 105 293 23 304 49 82 59 25 353 24 356 337 333 339 356 19 217 202 190 194 198 198 195 190 186 182 179 175 173 175 179 181
23 10 64 357 359 360 61 20 87 77 53 300 105 265 349 21 49 39 22 1 1 345 330 293 300 321 341 288 206 194 195 199 200 195 189 182 180 180 182 183 183 177 186 186
94 74 133 165 196 152 145 138 107 96 101 177 225 287 302 335 349 337 332 293 325 315 305 310 319 318 318 323 302 251 216 201 196 195 195 195 194 193 189 187 187 191 187 188
78 88 63 60 36 67 53 57 103 95 159 141 286 220 273 282 289 288 295 296 314 312 319 320 305 305 303 306 306 292 269 241 222 210 206 204 200 197 196 192 186 175 181 191
7 116 90 8 19 19 355 234 165 197 204 258 272 275 250 309 334 320 299 306 303 296 305 317 319 319 316 311 303 294 272 250 232 225 220 210 200 197 197 188 181 182 187 192
60 109 62 304 352 347 7 333 176 35 201 222 246 253 349 324 337 314 314 316 294 299 302 309 308 305 306 305 304 294 284 267 237 229 225 214 206 201 197 190 190 189 186 187
107 80 58 221 8 33 242 288 192 195 243 245 311 322 331 318 310 297 285 288 308 311 312 311 307 308 308 307 300 299 297 277 244 232 227 219 211 204 197 197 195 188 190 191
50 105 78 97 179 280 44 3 68 79 1 6 335 360 357 340 327 316 15 355 310 309 301 295 302 304 306 303 305 304 295 277 248 233 224 218 212 203 199 195 193 192 192 193
54 71 99 65 72 230 239 358 175 110 274 358 28 2 350 352 3 271 342 323 311 311 310 307 307 302 300 301 307 297 285 269 244 235 226 217 210 206 202 196 193 195 196 197
44 29 135 151 283 294 278 298 297 149 255 340 341 325 322 309 236 285 299 291 271 275 297 313 313 288 288 294 297 289 280 259 254 243 229 216 208 208 206 197 196 194 194 193
169 138 177 98 155 286 343 353 200 224 317 308 335 318 313 299 301 299 299 297 300 297 302 309 298 289 289 285 282 285 277 274 257 239 223 213 207 204 203 199 194 194 191 190
217 180 178 180 214 212 342 123 108 94 249 337 322 310 308 308 311 308 303 301 300 300 295 300 285 286 286 280 270 279 286 277 240 220 213 209 203 202 200 195 191 189 194 196
245 156 170 115 208 211 73 117 108 69 275 294 285 296 290 302 309 309 309 305 302 299 299 295 294 275 276 279 269 273 282 255 218 205 200 199 195 195 196 197 196 195 197 200
197 131 176 265 269 298 110 120 22 319 317 311 303 294 307 309 309 311 306 304 300 295 292 293 293 284 275 276 270 269 258 212 201 198 183 181 185 187 188 196 200 204 214 218
184 179 170 218 187 148 225 14 19 6 330 311 318 309 310 315 311 312 307 303 300 295 302 296 291 279 271 260 264 245 209 188 179 173 170 174 179 183 187 193 200 212 225 230